Flag for U.S.A. Weather past 2 weeks in Sioux Falls, South Dakota, U.S.A.

Now
54 °F

Clear.


Feels Like: 53 °F
Forecast: 49 / 60 °F
Wind: 6 mph from North

Location: Foss Field

Current Time: Oct 2, 2014 at 1:42:05 AM

Latest Report: Oct 2, 2014 at 12:56 AM


Visibility: 10 mi

Pressure: 29.85 "Hg

Humidity: 86%

Dew point: 50 °F

Location of Sioux FallsLocation

Historic Weather in Sioux Falls — Graph

°F

Sioux Falls temperature yesterday

Maximum temperature yesterday: 76 °F (at 3:56 PM)
Minimum temperature yesterday: 54 °F (at 10:56 PM)
Average temperature yesterday: 65 °F

Past Weeks' High & Low Weather Summary

 TemperatureHumidityPressure
High88 °F (Sep 19, 3:56 PM)100% (Sep 22, 7:56 AM)30.30 "Hg (Sep 22, 7:56 AM)
Low44 °F (Sep 22, 6:56 AM)32% (Sep 20, 4:56 PM)29.66 "Hg (Sep 19, 3:56 PM)
Average65 °F72%29.99 "Hg
* Reported Sep 16 11:56 PM — Oct 1 11:56 PM, Sioux Falls, Weather by CustomWeather, © 2014

Note: Actual official high and low records may vary slightly from our data, if they occured in-between our weather recording intervals... More about our weather records

Advertising

Sioux Falls weather history for previous 24 hours

 ConditionsComfort  
Time TempWeatherWind HumidityBarometerVisibility
11:56 PM
Oct 1
58 °FClear.12 mph78%29.83 "Hg10 mi
10:56 PM54 °FPassing clouds.5 mph90%29.82 "Hg10 mi
9:56 PM58 °FPassing clouds.No wind84%29.81 "Hg10 mi
8:56 PM61 °FPassing clouds.3 mph75%29.80 "Hg10 mi
7:56 PM61 °FPassing clouds.No wind75%29.78 "Hg10 mi
6:56 PM68 °FPartly sunny.5 mph59%29.75 "Hg10 mi
5:56 PM72 °FPartly sunny.9 mph52%29.72 "Hg10 mi
4:56 PM74 °FPartly sunny.10 mph48%29.70 "Hg10 mi
3:56 PM76 °FBroken clouds.3 mph48%29.70 "Hg10 mi
2:56 PM72 °FPartly sunny.5 mph59%29.70 "Hg10 mi
1:56 PM72 °FBroken clouds.5 mph64%29.71 "Hg10 mi
12:56 PM70 °FBroken clouds.6 mph68%29.71 "Hg10 mi
11:56 AM69 °FPartly sunny.7 mph73%29.71 "Hg10 mi
10:56 AM66 °FPartly sunny.7 mph81%29.70 "Hg10 mi
9:56 AM65 °FMostly cloudy.8 mph85%29.72 "Hg10 mi
8:56 AM64 °FLow clouds.7 mph90%29.73 "Hg9 mi
7:56 AM63 °FFog.8 mph93%29.72 "Hg6 mi
6:56 AM63 °FLight rain. Fog.8 mph93%29.72 "Hg6 mi
5:56 AM63 °FFog.9 mph93%29.70 "Hg6 mi
4:56 AM63 °FDrizzle. Fog.8 mph93%29.70 "Hg4 mi
3:56 AM63 °FLow clouds.9 mph90%29.70 "Hg7 mi
2:56 AM62 °FLow clouds.13 mph93%29.72 "Hg7 mi
1:56 AM63 °FLow clouds.14 mph90%29.73 "Hg9 mi
Weather by CustomWeather, © 2014

See weather overviewHow to use our weather pages